ONEWEB-0190 (48796 NORAD) Tracking and Keplerian Element Data

This shows tracking and keplerian element data for the satellite.

Feedback or suggestion? Click here.




ElementValue
Catalog48796
NameONEWEB-0190
Epoch Orbit183
Epoch Day170.58334491
Epoch Year2021
RAAN268.8962
Inclination87.4057
Eccentricity0.0008575
Argument of Perigee188.537
Mean Anonmoly124.4106
Mean Motion15.2908632
Decay Rate-0.00977301
L11 48796U 21045AF 21170.58334491 -.00977301 00000-0 -37489-1 0 9995
L22 48796 87.4057 268.8962 0008575 188.5370 124.4106 15.29086320 1831

Live tracking and technical data element details for ONEWEB-0190 (NORAD 48796). ONEWEB-0190 can be tracked NOW for your location showing map with azimuth and elevation plus other details from your city location.

Track the satellite on the map from your city or location and see movement details for azimuth, elevation, latitude, longitude, range, height, and movement on the map or in text.







IsCatalogInMostPopularTable: catalog: 48796, numindb: 7
Update: records affected: 1



GetName: 48796 ONEWEB-0190

Hit Count: updated at: Mon, 21 Jun 2021 03:52:41 GMT